Soldotna, AK

3:52 AM AKDT on March 24, 2017 (GMT -0800)
Soldotna

Weather History for PASX - May, 2013

Change the Weather History Date:

Tuesday, May 28, 2013

  Actual Average Record
Temperature  
Mean Temperature 54 °F -  
Max Temperature 75 °F 54 °F 75 °F (2013)
Min Temperature 33 °F 38 °F -3 °F (1971)
Degree Days  
Heating Degree Days 11    
Growing Degree Days 4 (Base 50)    
Moisture  
Dew Point 38 °F    
Average Humidity 55    
Maximum Humidity 87    
Minimum Humidity 25    
Precipitation  
Precipitation 0.00 in - - ()
Sea Level Pressure  
Sea Level Pressure 29.70 in    
Wind  
Wind Speed 3 mph (NW)    
Max Wind Speed 14 mph    
Max Gust Speed -    
Visibility 10 miles    
Events      
Averages and records for this station are not official NWS values.
T = Trace of Precipitation, MM = Missing Value Source: NWS Daily Summary

Daily Weather History Graph

Daily Weather History Graph

Search for Another Location

Airport or City:

Trip Planner

Search our weather history database for the weather conditions in past years. The results will help you decide how hot, cold, wet, or windy it might be!

Date:

Astronomy

May. 28, 2013 Rise Set
Actual Time 4:54 AM AKDT 11:10 PM AKDT
Civil Twilight 3:30 AM AKDT 12:35 AM AKDT
Nautical Twilight Sun does not rise Sun does not rise
Astronomical Twilight Sun does not rise Sun does not rise
Moon 1:24 AM AKDT (5/28) 9:30 AM AKDT (5/28)
Length of Visible Light 21h 04m
Length of Day
18h 15m
Waning Gibbous, 81% of the Moon is Illuminated
May 28
Waning Gibbous
May 31
Last Quarter
Jun 8
New
Jun 16
First Quarter
Jun 23
Full

Hourly Weather History & Observations

Time (AKDT) Temp. Windchill Dew Point Humidity Pressure Visibility Wind Dir Wind Speed Gust Speed Precip Events Conditions
12:16 AM 44.6 °F - 37.4 °F 76% 29.79 in 10.0 mi Calm Calm - N/A   Clear
12:36 AM 44.6 °F - 35.6 °F 71% 29.79 in 10.0 mi Calm Calm - N/A   Clear
12:56 AM 41.0 °F 39.0 °F 35.6 °F 81% 29.79 in 10.0 mi East 3.5 mph - N/A   Clear
1:16 AM 41.0 °F - 35.6 °F 81% 29.79 in 10.0 mi Calm Calm - N/A   Clear
1:36 AM 39.2 °F - 35.6 °F 87% 29.78 in 10.0 mi Calm Calm - N/A   Clear
1:56 AM 39.2 °F - 33.8 °F 81% 29.78 in 10.0 mi Calm Calm - N/A   Clear
2:16 AM 37.4 °F - 33.8 °F 87% 29.78 in 10.0 mi Calm Calm - N/A   Clear
2:36 AM 35.6 °F - 30.2 °F 81% 29.78 in 10.0 mi Calm Calm - N/A   Clear
2:56 AM 35.6 °F - 30.2 °F 81% 29.78 in 10.0 mi Calm Calm - N/A   Clear
3:16 AM 35.6 °F - 30.2 °F 81% 29.77 in 10.0 mi Calm Calm - N/A   Clear
3:36 AM 33.8 °F - 28.4 °F 81% 29.77 in 10.0 mi Calm Calm - N/A   Clear
3:56 AM 35.6 °F 32.8 °F 30.2 °F 81% 29.77 in 10.0 mi NE 3.5 mph - N/A   Clear
4:16 AM 33.8 °F 30.8 °F 30.2 °F 87% 29.77 in 10.0 mi ENE 3.5 mph - N/A   Clear
4:36 AM 33.8 °F - 30.2 °F 87% 29.77 in 10.0 mi Calm Calm - N/A   Clear
4:56 AM 33.8 °F - 28.4 °F 81% 29.77 in 10.0 mi Calm Calm - N/A   Clear
5:16 AM 33.8 °F - 28.4 °F 81% 29.77 in 10.0 mi Calm Calm - N/A   Clear
5:36 AM 33.8 °F 30.8 °F 30.2 °F 87% 29.76 in 10.0 mi East 3.5 mph - N/A   Clear
5:56 AM 33.8 °F - 30.2 °F 87% 29.76 in 10.0 mi Calm Calm - N/A   Clear
6:16 AM 35.6 °F 32.8 °F 30.2 °F 81% 29.76 in 10.0 mi East 3.5 mph - N/A   Clear
6:36 AM 37.4 °F 34.9 °F 32.0 °F 81% 29.76 in 10.0 mi East 3.5 mph - N/A   Clear
6:56 AM 37.4 °F - 33.8 °F 87% 29.76 in 10.0 mi Calm Calm - N/A   Clear
7:16 AM 39.2 °F 37.0 °F 33.8 °F 81% 29.76 in 10.0 mi ENE 3.5 mph - N/A   Clear
7:36 AM 42.8 °F - 35.6 °F 76% 29.76 in 10.0 mi Calm Calm - N/A   Clear
7:56 AM 44.6 °F - 37.4 °F 76% 29.76 in 10.0 mi Calm Calm - N/A   Clear
8:16 AM 44.6 °F - 37.4 °F 76% 29.75 in 10.0 mi Calm Calm - N/A   Clear
8:36 AM 46.4 °F - 37.4 °F 71% 29.75 in 10.0 mi Calm Calm - N/A   Clear
8:56 AM 48.2 °F - 37.4 °F 66% 29.74 in 10.0 mi WNW 3.5 mph - N/A   Clear
9:16 AM 48.2 °F - 39.2 °F 71% 29.74 in 10.0 mi Calm Calm - N/A   Clear
9:36 AM 50.0 °F - 39.2 °F 66% 29.74 in 10.0 mi Calm Calm - N/A   Clear
9:56 AM 51.8 °F - 39.2 °F 62% 29.73 in 10.0 mi Calm Calm - N/A   Clear
10:16 AM 53.6 °F - 39.2 °F 58% 29.73 in 10.0 mi Calm Calm - N/A   Clear
10:36 AM 55.4 °F - 39.2 °F 54% 29.73 in 10.0 mi NNE 3.5 mph - N/A   Clear
10:56 AM 57.2 °F - 41.0 °F 55% 29.72 in 10.0 mi NNW 5.8 mph - N/A   Clear
11:16 AM 60.8 °F - 41.0 °F 48% 29.72 in 10.0 mi North 6.9 mph - N/A   Clear
11:36 AM 62.6 °F - 41.0 °F 45% 29.71 in 10.0 mi North 5.8 mph - N/A   Clear
11:56 AM 64.4 °F - 42.8 °F 45% 29.70 in 10.0 mi NNE 5.8 mph - N/A   Clear
12:16 PM 64.4 °F - 42.8 °F 45% 29.70 in 10.0 mi NE 10.4 mph - N/A   Clear
12:36 PM 66.2 °F - 42.8 °F 43% 29.69 in 10.0 mi NE 9.2 mph - N/A   Clear
12:56 PM 66.2 °F - 42.8 °F 43% 29.69 in 10.0 mi NW 5.8 mph - N/A   Clear
1:16 PM 66.2 °F - 44.6 °F 46% 29.68 in 10.0 mi WNW 9.2 mph - N/A   Clear
1:36 PM 68.0 °F - 44.6 °F 43% 29.68 in 10.0 mi WNW 9.2 mph - N/A   Clear
1:56 PM 69.8 °F - 42.8 °F 38% 29.67 in 10.0 mi WNW 9.2 mph - N/A   Clear
2:16 PM 69.8 °F - 42.8 °F 38% 29.67 in 10.0 mi WNW 9.2 mph - N/A   Clear
2:36 PM 69.8 °F - 42.8 °F 38% 29.67 in 10.0 mi NW 9.2 mph - N/A   Clear
2:56 PM 71.6 °F - 42.8 °F 35% 29.67 in 10.0 mi WNW 11.5 mph - N/A   Clear
3:16 PM 71.6 °F - 44.6 °F 38% 29.66 in 10.0 mi WNW 10.4 mph - N/A   Clear
3:36 PM 73.4 °F - 42.8 °F 33% 29.66 in 10.0 mi NE 5.8 mph - N/A   Clear
3:56 PM 75.2 °F - 39.2 °F 27% 29.66 in 10.0 mi North 6.9 mph - N/A   Clear
4:16 PM 75.2 °F - 39.2 °F 27% 29.65 in 10.0 mi North 8.1 mph - N/A   Clear
4:36 PM 75.2 °F - 39.2 °F 27% 29.65 in 10.0 mi NNW 6.9 mph - N/A   Clear
4:56 PM 75.2 °F - 37.4 °F 25% 29.65 in 10.0 mi NNE 9.2 mph - N/A   Clear
5:16 PM 75.2 °F - 39.2 °F 27% 29.64 in 10.0 mi NNW 9.2 mph - N/A   Clear
5:36 PM 75.2 °F - 42.8 °F 31% 29.64 in 10.0 mi NW 8.1 mph - N/A   Clear
5:56 PM 75.2 °F - 39.2 °F 27% 29.64 in 10.0 mi WNW 11.5 mph - N/A   Clear
6:16 PM 75.2 °F - 41.0 °F 29% 29.63 in 10.0 mi WNW 13.8 mph - N/A   Clear
6:36 PM 73.4 °F - 42.8 °F 33% 29.63 in 10.0 mi West 12.7 mph - N/A   Clear
6:56 PM 73.4 °F - 41.0 °F 31% 29.63 in 10.0 mi West 11.5 mph - N/A   Clear
7:16 PM 73.4 °F - 41.0 °F 31% 29.63 in 10.0 mi West 11.5 mph - N/A   Clear
7:36 PM 71.6 °F - 41.0 °F 33% 29.63 in 10.0 mi West 10.4 mph - N/A   Clear
7:56 PM 71.6 °F - 41.0 °F 33% 29.63 in 10.0 mi West 11.5 mph - N/A   Clear
8:16 PM 71.6 °F - 41.0 °F 33% 29.63 in 10.0 mi West 11.5 mph - N/A   Clear
8:36 PM 69.8 °F - 41.0 °F 35% 29.63 in 10.0 mi West 8.1 mph - N/A   Clear
8:56 PM 69.8 °F - 39.2 °F 33% 29.63 in 10.0 mi West 8.1 mph - N/A   Clear
9:16 PM 69.8 °F - 39.2 °F 33% 29.63 in 10.0 mi West 6.9 mph - N/A   Clear
9:36 PM 69.8 °F - 39.2 °F 33% 29.63 in 10.0 mi West 8.1 mph - N/A   Clear
9:56 PM 66.2 °F - 39.2 °F 37% 29.63 in 10.0 mi West 6.9 mph - N/A   Clear
10:16 PM 66.2 °F - 39.2 °F 37% 29.63 in 10.0 mi West 5.8 mph - N/A   Clear
10:36 PM 64.4 °F - 39.2 °F 40% 29.64 in 10.0 mi West 5.8 mph - N/A   Clear
10:56 PM 62.6 °F - 39.2 °F 42% 29.64 in 10.0 mi West 3.5 mph - N/A   Clear
11:16 PM 60.8 °F - 39.2 °F 45% 29.64 in 10.0 mi Calm Calm - N/A   Clear
11:36 PM 57.2 °F - 39.2 °F 51% 29.64 in 10.0 mi Calm Calm - N/A   Clear
11:56 PM 53.6 °F - 37.4 °F 54% 29.64 in 10.0 mi Calm Calm - N/A   Clear